Torna al catalogo

THORAD AGENA D DEB

AttivoSSO
NORAD 4970·DEBRIS·🇺🇸 United States

Lanciato Apr 8, 1970 da Vandenberg Space Force Base

Loading…

Prossimi Passaggi (prossime 24 ore)

TLE

AggiornatoSource: Space-Track

Epoca: Sep 14, 2026, 09:40 UTC

1 04970U 70025GQ  26257.40284140  .00000310  00000-0  47555-3 0  9992
2 04970  99.9616 223.7502 0037932   7.4877 144.0100 13.59993411786680

Traccia THORAD AGENA D DEB in tempo reale con AllMySat

Download on the App Store